CW6440 Branford CT US current weather conditions

sailwx.info

Wind from 229

Air temperature 22.2° C
Dewpoint 21.2° C

Last reported at 2020-Aug-10 07:05 UTC.
Time now 2020-Aug-10 07:45 UTC

Location: N 41°18' W 072°48'.
View on Google Maps.

See reports from other nearby stations

  
Tides and Currents Weather Stations Pressure Air Temp Water Temp Dewpoint Dewpoint Depression Visibility Wind Speed Wind Dir Waves Ship Positions
date/time (UTC)wind fromknots sea level pressurealtimeterstation pressurevisibilityair tempwater tempwave heightnotes
2020-Aug-10 07:05 229 22.2
2020-Aug-10 07:00 229 22.2
2020-Aug-10 06:35 229 22.8
2020-Aug-10 06:30 229 22.8
2020-Aug-10 06:05 229 22.8
2020-Aug-10 06:00 229 22.8
2020-Aug-10 05:35 223 23.3
2020-Aug-10 05:30 239 23.3
2020-Aug-10 05:05 232 0 gusting 2 23.3
2020-Aug-10 05:00 245 23.3
2020-Aug-10 04:35 231 23.3
2020-Aug-10 04:30 229 23.3
2020-Aug-10 04:05 223 22.8
2020-Aug-10 04:00 248 22.8
2020-Aug-10 03:35 247 23.3
2020-Aug-10 03:30 247 23.3
2020-Aug-10 03:05 248 23.3
2020-Aug-10 03:00 248 23.3
2020-Aug-10 02:35 197 23.9
2020-Aug-10 02:30 196 23.9
2020-Aug-10 02:05 191 23.9
2020-Aug-10 02:00 188 24.4
2020-Aug-10 01:35 230 0 gusting 2 24.4
2020-Aug-10 01:30 228 24.4
2020-Aug-10 01:05 244 0 gusting 5 24.4
2020-Aug-10 01:00 236 1 gusting 8 25.0
2020-Aug-10 00:35 167 1 gusting 2 25.0
2020-Aug-10 00:30 179 0 gusting 7 25.0
2020-Aug-10 00:05 212 25.6
2020-Aug-10 00:00 240 0 gusting 7 25.6
2020-Aug-09 23:35 213 26.1
2020-Aug-09 23:30 202 1 gusting 10 26.7
2020-Aug-09 23:05 185 0 gusting 6 27.2
2020-Aug-09 23:00 234 2 gusting 10 27.2
2020-Aug-09 22:35 250 2 gusting 8 28.9
2020-Aug-09 22:30 265 1 gusting 6 28.9
2020-Aug-09 22:05 230 0 gusting 5 29.4
2020-Aug-09 22:00 225 0 gusting 10 29.4
2020-Aug-09 21:35 198 1 gusting 6 30.6
2020-Aug-09 21:30 171 2 gusting 6 30.6
2020-Aug-09 21:05 173 1 gusting 5 30.6
2020-Aug-09 21:00 229 1 gusting 7 30.6
2020-Aug-09 20:35 211 2 gusting 6 30.6
2020-Aug-09 20:30 255 3 gusting 6 30.6
2020-Aug-09 20:05 221 4 gusting 7 30.6
2020-Aug-09 20:00 249 0 gusting 10 30.6
2020-Aug-09 19:35 247 1 gusting 6 30.6
2020-Aug-09 19:30 260 2 gusting 6 30.6
2020-Aug-09 19:05 256 4 gusting 8 31.1
2020-Aug-09 19:00 208 0 gusting 7 31.1
2020-Aug-09 18:35 239 0 gusting 5 30.6
2020-Aug-09 18:30 159 2 gusting 7 30.6
2020-Aug-09 18:05 211 4 gusting 6 30.6
2020-Aug-09 18:00 210 1 gusting 7 31.1
2020-Aug-09 17:35 231 2 gusting 6 29.4
2020-Aug-09 17:30 246 4 gusting 10 29.4
2020-Aug-09 17:05 220 1 gusting 5 28.3
2020-Aug-09 16:35 263 6 gusting 11 28.3
2020-Aug-09 16:30 245 5 gusting 10 28.9
2020-Aug-09 16:05 248 0 gusting 6 28.3
2020-Aug-09 16:00 228 2 gusting 10 28.3
2020-Aug-09 15:35 197 0 gusting 5 27.8
2020-Aug-09 15:30 227 2 gusting 7 27.2
2020-Aug-09 15:05 164 1 gusting 4 27.2
2020-Aug-09 15:00 225 0 gusting 7 26.7
2020-Aug-09 14:35 159 0 gusting 5 26.7
2020-Aug-09 14:30 193 26.1
2020-Aug-09 14:05 257 1 gusting 6 25.6
2020-Aug-09 14:00 219 0 gusting 7 25.6
2020-Aug-09 13:35 204 25.0
2020-Aug-09 13:30 254 24.4
2020-Aug-09 13:05 255 23.9
2020-Aug-09 13:00 248 3 gusting 6 23.9
2020-Aug-09 12:35 242 1 gusting 6 23.3
2020-Aug-09 12:30 269 2 gusting 7 23.3
2020-Aug-09 12:05 217 0 gusting 2 22.8
2020-Aug-09 12:00 244 0 gusting 4 22.8
2020-Aug-09 11:35 248 0 gusting 4 22.2
2020-Aug-09 11:30 226 21.7
2020-Aug-09 11:05 228 21.1
2020-Aug-09 11:00 228 21.1
2020-Aug-09 10:35 228 21.1
2020-Aug-09 10:30 228 21.1
2020-Aug-09 10:05 227 21.1
2020-Aug-09 10:00 227 20.6
2020-Aug-09 09:35 227 21.1
2020-Aug-09 09:30 227 21.1
2020-Aug-09 09:05 227 21.1
2020-Aug-09 09:00 228 21.1
2020-Aug-09 08:35 228 21.7
2020-Aug-09 08:30 227 21.7
2020-Aug-09 08:05 228 21.7
2020-Aug-09 08:00 228 21.7
2020-Aug-09 07:35 228 21.7
2020-Aug-09 07:30 228 21.7
2020-Aug-09 07:05 227 21.7
2020-Aug-09 07:00 227 21.7
2020-Aug-09 06:35 234 21.7
2020-Aug-09 06:30 234 21.7
2020-Aug-09 06:05 235 21.1
2020-Aug-09 06:00 235 21.1
2020-Aug-09 05:35 235 21.1
2020-Aug-09 05:30 235 21.1
2020-Aug-09 05:05 235 21.7
2020-Aug-09 05:00 235 21.7
2020-Aug-09 04:35 235 21.7
2020-Aug-09 04:30 235 21.7
2020-Aug-09 04:05 234 22.2
2020-Aug-09 04:00 234 22.2
2020-Aug-09 03:35 235 22.2
2020-Aug-09 03:30 235 22.2
2020-Aug-09 03:05 235 22.8
2020-Aug-09 03:00 235 22.8
2020-Aug-09 02:35 236 22.8
2020-Aug-09 02:30 239 22.8
2020-Aug-09 02:05 225 22.8
2020-Aug-09 02:00 224 22.8
2020-Aug-09 01:35 229 23.3
2020-Aug-09 01:30 218 23.3
2020-Aug-09 01:05 194 23.3
2020-Aug-09 01:00 206 23.9
2020-Aug-09 00:35 263 23.9
2020-Aug-09 00:30 271 24.4
2020-Aug-09 00:05 241 0 gusting 2 24.4
2020-Aug-09 00:00 188 25.0
2020-Aug-08 23:35 241 25.6
2020-Aug-08 23:30 175 26.1
2020-Aug-08 23:05 219 26.7
2020-Aug-08 23:00 234 27.2
2020-Aug-08 22:35 184 27.8
2020-Aug-08 22:30 179 0 gusting 5 27.8
2020-Aug-08 22:05 201 28.3
2020-Aug-08 22:00 194 28.3
2020-Aug-08 21:35 166 0 gusting 2 28.3
2020-Aug-08 21:30 227 0 gusting 5 28.3
2020-Aug-08 21:05 220 0 gusting 5 28.9
2020-Aug-08 21:00 143 0 gusting 6 28.9
2020-Aug-08 20:35 156 28.9
2020-Aug-08 20:30 168 28.9
2020-Aug-08 20:05 203 1 gusting 5 29.4
2020-Aug-08 20:00 237 0 gusting 5 29.4
2020-Aug-08 19:35 174 2 gusting 6 29.4
2020-Aug-08 19:30 178 0 gusting 6 29.4
2020-Aug-08 19:05 311 0 gusting 6 28.9
2020-Aug-08 19:00 149 0 gusting 6 28.9
2020-Aug-08 18:35 201 3 gusting 8 27.8
2020-Aug-08 18:30 266 1 gusting 7 28.3
2020-Aug-08 18:05 237 2 gusting 6 28.3
2020-Aug-08 18:00 239 2 gusting 7 28.3
2020-Aug-08 17:35 211 1 gusting 4 28.3
2020-Aug-08 17:30 239 2 gusting 8 28.3
2020-Aug-08 17:05 229 1 gusting 6 27.8
2020-Aug-08 17:00 262 2 gusting 7 27.8
2020-Aug-08 16:35 257 0 gusting 6 28.3
2020-Aug-08 16:30 241 1 gusting 6 28.3
2020-Aug-08 16:05 202 0 gusting 4 28.3
2020-Aug-08 16:00 254 0 gusting 6 28.3
2020-Aug-08 15:35 165 28.3
2020-Aug-08 15:30 246 0 gusting 6 28.3
2020-Aug-08 15:05 250 0 gusting 2 27.2
2020-Aug-08 15:00 203 27.2
2020-Aug-08 14:35 231 27.2
2020-Aug-08 14:30 221 27.2
2020-Aug-08 14:05 150 0 gusting 4 26.1
2020-Aug-08 14:00 010 26.7
2020-Aug-08 13:35 047 25.6
2020-Aug-08 13:30 011 0 gusting 4 25.6
2020-Aug-08 13:05 034 24.4
2020-Aug-08 13:00 084 1 gusting 5 24.4
2020-Aug-08 12:35 346 0 gusting 2 23.3
2020-Aug-08 12:30 061 23.3
2020-Aug-08 12:05 011 0 gusting 4 22.2
2020-Aug-08 12:00 111 0 gusting 2 22.2
2020-Aug-08 11:35 053 21.1
2020-Aug-08 11:30 047 21.1
2020-Aug-08 11:05 076 20.6
2020-Aug-08 11:00 063 20.6
2020-Aug-08 10:35 065 20.6
2020-Aug-08 10:30 065 20.6
2020-Aug-08 10:05 053 20.0
2020-Aug-08 10:00 055 20.0
2020-Aug-08 09:35 055 20.6
2020-Aug-08 09:30 055 20.6
2020-Aug-08 09:05 021 20.6
2020-Aug-08 09:00 021 20.6
2020-Aug-08 08:35 021 20.6
2020-Aug-08 08:30 021 20.6
2020-Aug-08 08:05 020 21.1
2020-Aug-08 08:00 020 21.1
2020-Aug-08 07:35 020 21.1
2020-Aug-08 07:30 020 21.1
2020-Aug-08 07:05 022 21.1
2020-Aug-08 07:00 022 21.1